Time,TemperatureF,DewpointF,PressureIn,WindDirection,WindDirectionDegrees,WindSpeedMPH,WindSpeedGustMPH,Humidity,HourlyPrecipIn,Conditions,Clouds,dailyrainin,SoftwareType,DateUTC
2014-02-13 00:01:00,12.9,12.7,30.42,East,90,0.0,0.0,99,0.00,,,0.00,meteobridge,2014-02-13 05:01:00,
2014-02-13 00:02:00,12.9,12.7,30.42,East,90,0.0,0.0,99,0.00,,,0.00,meteobridge,2014-02-13 05:02:00,
2014-02-13 00:03:00,12.9,12.7,30.41,East,90,0.0,0.0,99,0.00,,,0.00,meteobridge,2014-02-13 05:03:00,
2014-02-13 00:06:00,12.7,12.6,30.41,East,90,0.0,0.0,99,0.00,,,0.00,meteobridge,2014-02-13 05:06:00,
2014-02-13 00:11:00,13.1,12.9,30.41,East,90,0.0,0.0,99,0.00,,,0.00,meteobridge,2014-02-13 05:11:00,
2014-02-13 00:17:00,13.5,13.3,30.41,East,90,0.0,0.0,99,0.00,,,0.00,meteobridge,2014-02-13 05:17:00,
2014-02-13 00:22:00,14.5,14.4,30.40,East,90,0.0,0.0,99,0.00,,,0.00,meteobridge,2014-02-13 05:22:00,
2014-02-13 00:27:00,14.9,14.7,30.40,East,90,0.0,0.0,99,0.00,,,0.00,meteobridge,2014-02-13 05:27:00,
2014-02-13 00:32:00,14.7,14.5,30.40,East,90,0.0,0.0,99,0.00,,,0.00,meteobridge,2014-02-13 05:32:00,
2014-02-13 00:37:00,14.5,14.4,30.39,East,90,0.0,0.0,99,0.00,,,0.00,meteobridge,2014-02-13 05:37:00,
2014-02-13 00:42:00,15.3,15.1,30.39,East,90,0.0,0.0,99,0.00,,,0.00,meteobridge,2014-02-13 05:42:00,
2014-02-13 00:48:00,15.4,15.3,30.38,East,90,0.0,0.0,99,0.00,,,0.00,meteobridge,2014-02-13 05:48:00,
2014-02-13 00:53:00,15.3,15.1,30.38,East,90,0.0,0.0,99,0.00,,,0.00,meteobridge,2014-02-13 05:53:00,
2014-02-13 00:58:00,15.1,14.9,30.39,East,90,0.0,0.0,99,0.00,,,0.00,meteobridge,2014-02-13 05:58:00,
2014-02-13 01:03:00,15.1,14.9,30.39,East,90,0.0,0.0,99,0.00,,,0.00,meteobridge,2014-02-13 06:03:00,
2014-02-13 01:08:00,15.1,14.9,30.39,East,90,0.0,0.0,99,0.00,,,0.00,meteobridge,2014-02-13 06:08:00,
2014-02-13 01:13:00,15.3,15.1,30.38,East,90,0.0,0.0,99,0.00,,,0.00,meteobridge,2014-02-13 06:13:00,
2014-02-13 01:19:00,15.6,15.4,30.38,East,90,0.0,0.0,99,0.00,,,0.00,meteobridge,2014-02-13 06:19:00,
2014-02-13 01:24:00,15.8,15.3,30.38,East,90,0.0,0.0,98,0.00,,,0.00,meteobridge,2014-02-13 06:24:00,
2014-02-13 01:29:00,15.8,15.3,30.37,East,90,0.0,0.0,98,0.00,,,0.00,meteobridge,2014-02-13 06:29:00,
2014-02-13 01:34:00,15.8,15.3,30.37,East,90,0.0,0.0,98,0.00,,,0.00,meteobridge,2014-02-13 06:34:00,
2014-02-13 01:39:00,16.5,16.0,30.37,East,90,0.0,0.0,98,0.00,,,0.00,meteobridge,2014-02-13 06:39:00,
2014-02-13 01:44:00,16.2,15.6,30.37,East,90,0.0,0.0,98,0.00,,,0.00,meteobridge,2014-02-13 06:44:00,
2014-02-13 01:50:00,15.8,15.3,30.36,East,90,0.0,0.0,98,0.00,,,0.00,meteobridge,2014-02-13 06:50:00,
2014-02-13 01:55:00,15.4,15.3,30.35,East,90,0.0,0.0,99,0.00,,,0.00,meteobridge,2014-02-13 06:55:00,
2014-02-13 02:00:00,15.1,14.9,30.36,East,90,0.0,0.0,99,0.00,,,0.00,meteobridge,2014-02-13 07:00:00,
2014-02-13 02:05:00,15.1,14.9,30.36,East,90,0.0,0.0,99,0.00,,,0.00,meteobridge,2014-02-13 07:05:00,
2014-02-13 02:10:00,14.9,14.7,30.35,East,90,0.0,0.0,99,0.00,,,0.00,meteobridge,2014-02-13 07:10:00,
2014-02-13 02:15:00,14.9,14.7,30.35,East,90,0.0,0.0,99,0.00,,,0.00,meteobridge,2014-02-13 07:15:00,
2014-02-13 02:21:00,14.9,14.7,30.35,East,90,0.0,0.0,99,0.00,,,0.00,meteobridge,2014-02-13 07:21:00,
2014-02-13 02:26:00,14.9,14.7,30.34,East,90,0.0,0.0,99,0.00,,,0.00,meteobridge,2014-02-13 07:26:00,
2014-02-13 02:31:00,15.3,15.1,30.34,East,90,0.0,0.0,99,0.00,,,0.00,meteobridge,2014-02-13 07:31:00,
2014-02-13 02:36:00,15.3,15.1,30.34,East,90,0.0,0.0,99,0.00,,,0.00,meteobridge,2014-02-13 07:36:00,
2014-02-13 02:41:00,15.3,15.1,30.34,East,90,0.0,0.0,99,0.00,,,0.00,meteobridge,2014-02-13 07:41:00,
2014-02-13 02:47:00,15.3,15.1,30.34,East,90,0.0,0.0,99,0.00,,,0.00,meteobridge,2014-02-13 07:47:00,
2014-02-13 02:52:00,15.4,15.3,30.34,East,90,0.0,0.0,99,0.00,,,0.00,meteobridge,2014-02-13 07:52:00,
2014-02-13 02:57:00,15.6,15.4,30.34,East,90,0.0,0.0,99,0.00,,,0.00,meteobridge,2014-02-13 07:57:00,
2014-02-13 03:02:00,15.8,15.3,30.35,East,90,0.0,0.0,98,0.00,,,0.00,meteobridge,2014-02-13 08:02:00,
2014-02-13 03:07:00,16.0,15.4,30.34,East,90,0.0,0.0,98,0.00,,,0.00,meteobridge,2014-02-13 08:07:00,
2014-02-13 03:12:00,16.2,15.6,30.34,East,90,0.0,0.0,98,0.00,,,0.00,meteobridge,2014-02-13 08:12:00,
2014-02-13 03:18:00,16.2,15.6,30.34,East,90,0.0,0.0,98,0.00,,,0.00,meteobridge,2014-02-13 08:18:00,
2014-02-13 03:23:00,16.3,15.8,30.33,East,90,0.0,0.0,98,0.00,,,0.00,meteobridge,2014-02-13 08:23:00,
2014-02-13 03:28:00,16.5,16.0,30.33,East,90,0.0,0.0,98,0.00,,,0.00,meteobridge,2014-02-13 08:28:00,
2014-02-13 03:33:00,16.7,16.2,30.33,East,90,0.0,0.0,98,0.00,,,0.00,meteobridge,2014-02-13 08:33:00,
2014-02-13 03:38:00,16.7,16.2,30.33,East,90,0.0,0.0,98,0.00,,,0.00,meteobridge,2014-02-13 08:38:00,
2014-02-13 03:43:00,17.1,16.5,30.32,East,90,0.0,0.0,98,0.00,,,0.00,meteobridge,2014-02-13 08:43:00,
2014-02-13 03:49:00,17.2,16.7,30.32,East,90,0.0,0.0,98,0.00,,,0.00,meteobridge,2014-02-13 08:49:00,
2014-02-13 03:54:00,17.2,16.7,30.32,East,90,0.0,0.0,98,0.00,,,0.00,meteobridge,2014-02-13 08:54:00,
2014-02-13 03:59:00,17.4,16.9,30.31,East,90,0.0,0.0,98,0.00,,,0.00,meteobridge,2014-02-13 08:59:00,
2014-02-13 04:04:00,17.6,16.9,30.31,East,90,0.0,0.0,97,0.00,,,0.00,meteobridge,2014-02-13 09:04:00,
2014-02-13 04:09:00,17.6,16.9,30.31,East,90,0.0,0.0,97,0.00,,,0.00,meteobridge,2014-02-13 09:09:00,
2014-02-13 04:14:00,17.8,17.1,30.31,East,90,0.0,0.0,97,0.00,,,0.00,meteobridge,2014-02-13 09:14:00,
2014-02-13 04:20:00,18.0,17.2,30.30,East,90,0.0,0.0,97,0.00,,,0.00,meteobridge,2014-02-13 09:20:00,
2014-02-13 04:25:00,18.1,17.4,30.30,East,90,0.0,0.0,97,0.00,,,0.00,meteobridge,2014-02-13 09:25:00,
2014-02-13 04:30:00,18.1,17.4,30.30,East,90,0.0,0.0,97,0.00,,,0.00,meteobridge,2014-02-13 09:30:00,
2014-02-13 04:35:00,18.3,17.6,30.29,East,90,0.0,0.0,97,0.00,,,0.00,meteobridge,2014-02-13 09:35:00,
2014-02-13 04:40:00,18.5,17.8,30.29,East,90,0.0,0.0,97,0.00,,,0.00,meteobridge,2014-02-13 09:40:00,
2014-02-13 04:45:00,18.5,17.8,30.29,East,90,0.0,0.0,97,0.00,,,0.00,meteobridge,2014-02-13 09:45:00,
2014-02-13 04:51:00,18.5,17.8,30.29,East,90,0.0,0.0,97,0.00,,,0.00,meteobridge,2014-02-13 09:51:00,
2014-02-13 04:56:00,18.5,17.8,30.29,East,90,0.0,0.0,97,0.00,,,0.00,meteobridge,2014-02-13 09:56:00,
2014-02-13 05:01:00,18.5,17.8,30.28,East,90,0.0,0.0,97,0.00,,,0.00,meteobridge,2014-02-13 10:01:00,
2014-02-13 05:06:00,18.5,17.8,30.29,East,90,0.0,0.0,97,0.00,,,0.00,meteobridge,2014-02-13 10:06:00,
2014-02-13 05:11:00,18.9,18.1,30.29,East,90,0.0,0.0,97,0.00,,,0.00,meteobridge,2014-02-13 10:11:00,
2014-02-13 05:16:00,18.9,18.1,30.29,East,90,0.0,0.0,97,0.00,,,0.00,meteobridge,2014-02-13 10:16:00,
2014-02-13 05:22:00,18.9,18.1,30.28,East,90,0.0,0.0,97,0.00,,,0.00,meteobridge,2014-02-13 10:22:00,
2014-02-13 05:27:00,19.0,18.3,30.28,East,90,0.0,0.0,97,0.00,,,0.00,meteobridge,2014-02-13 10:27:00,
2014-02-13 05:32:00,19.2,18.5,30.28,East,90,0.0,0.0,97,0.00,,,0.00,meteobridge,2014-02-13 10:32:00,
2014-02-13 05:37:00,19.2,18.5,30.28,East,90,0.0,0.0,97,0.00,,,0.00,meteobridge,2014-02-13 10:37:00,
2014-02-13 05:42:00,19.4,19.2,30.28,East,90,0.0,0.0,99,0.00,,,0.00,meteobridge,2014-02-13 10:42:00,
2014-02-13 05:47:00,19.6,19.4,30.28,East,90,0.0,0.0,99,0.00,,,0.00,meteobridge,2014-02-13 10:47:00,
2014-02-13 05:53:00,19.6,19.4,30.28,East,90,0.0,0.0,99,0.00,,,0.00,meteobridge,2014-02-13 10:53:00,
2014-02-13 05:58:00,19.6,19.4,30.28,East,90,0.0,0.0,99,0.00,,,0.00,meteobridge,2014-02-13 10:58:00,
2014-02-13 06:03:00,19.6,19.4,30.28,East,90,0.0,0.0,99,0.00,,,0.00,meteobridge,2014-02-13 11:03:00,
2014-02-13 06:08:00,19.8,19.6,30.28,East,90,0.0,0.0,99,0.00,,,0.00,meteobridge,2014-02-13 11:08:00,
2014-02-13 06:13:00,19.8,19.6,30.28,East,90,0.0,0.0,99,0.00,,,0.00,meteobridge,2014-02-13 11:13:00,
2014-02-13 06:18:00,19.8,19.6,30.27,East,90,0.0,0.0,99,0.00,,,0.00,meteobridge,2014-02-13 11:18:00,
2014-02-13 06:24:00,19.9,19.8,30.27,East,90,0.0,0.0,99,0.00,,,0.00,meteobridge,2014-02-13 11:24:00,
2014-02-13 06:29:00,20.1,19.9,30.27,NW,315,0.0,0.0,99,0.00,,,0.00,meteobridge,2014-02-13 11:29:00,
2014-02-13 06:34:00,20.1,19.9,30.27,NW,315,0.0,0.0,99,0.00,,,0.00,meteobridge,2014-02-13 11:34:00,
2014-02-13 06:39:00,20.3,20.1,30.26,NW,315,0.0,0.0,99,0.00,,,0.00,meteobridge,2014-02-13 11:39:00,
2014-02-13 06:44:00,20.1,19.9,30.27,NW,315,0.0,0.0,99,0.00,,,0.00,meteobridge,2014-02-13 11:44:00,
2014-02-13 06:49:00,20.1,19.9,30.26,NW,315,0.0,0.0,99,0.00,,,0.00,meteobridge,2014-02-13 11:49:00,
2014-02-13 06:55:00,20.1,19.9,30.26,NW,315,0.0,0.0,99,0.00,,,0.00,meteobridge,2014-02-13 11:55:00,
2014-02-13 07:00:00,19.9,19.8,30.26,NW,315,0.0,0.0,99,0.00,,,0.00,meteobridge,2014-02-13 12:00:00,
2014-02-13 07:05:00,19.9,19.8,30.26,NW,315,0.0,0.0,99,0.00,,,0.00,meteobridge,2014-02-13 12:05:00,
2014-02-13 07:10:00,19.9,19.8,30.26,NW,315,0.0,0.0,99,0.00,,,0.00,meteobridge,2014-02-13 12:10:00,
2014-02-13 07:15:00,19.9,19.8,30.25,NW,315,0.0,0.0,99,0.00,,,0.00,meteobridge,2014-02-13 12:15:00,
2014-02-13 07:20:00,20.1,19.9,30.25,NW,315,0.0,0.0,99,0.00,,,0.00,meteobridge,2014-02-13 12:20:00,
2014-02-13 07:26:00,20.1,19.9,30.25,NW,315,0.0,0.0,99,0.00,,,0.00,meteobridge,2014-02-13 12:26:00,
2014-02-13 07:31:00,20.5,20.3,30.25,NW,315,0.0,0.0,99,0.00,,,0.00,meteobridge,2014-02-13 12:31:00,
2014-02-13 07:36:00,20.7,20.5,30.24,NW,315,0.0,0.0,99,0.00,,,0.00,meteobridge,2014-02-13 12:36:00,
2014-02-13 07:41:00,20.8,20.7,30.24,NW,315,0.0,0.0,99,0.00,,,0.00,meteobridge,2014-02-13 12:41:00,
2014-02-13 07:46:00,21.0,20.8,30.23,NW,315,0.0,0.0,99,0.00,,,0.00,meteobridge,2014-02-13 12:46:00,
2014-02-13 07:51:00,21.4,21.2,30.23,NW,315,0.0,0.0,99,0.00,,,0.00,meteobridge,2014-02-13 12:51:00,
2014-02-13 07:57:00,21.2,21.0,30.23,NW,315,0.0,0.0,99,0.00,,,0.00,meteobridge,2014-02-13 12:57:00,
2014-02-13 08:02:00,21.4,21.2,30.22,NW,315,0.0,0.0,99,0.00,,,0.00,meteobridge,2014-02-13 13:02:00,
2014-02-13 08:07:00,21.6,21.4,30.22,NW,315,0.0,0.0,99,0.00,,,0.00,meteobridge,2014-02-13 13:07:00,
2014-02-13 08:12:00,21.7,21.6,30.22,NW,315,0.0,0.0,99,0.00,,,0.00,meteobridge,2014-02-13 13:12:00,
2014-02-13 08:17:00,22.1,21.9,30.21,NW,315,0.0,0.0,99,0.00,,,0.00,meteobridge,2014-02-13 13:17:00,
2014-02-13 08:23:00,22.3,22.1,30.21,NW,315,0.0,0.0,99,0.00,,,0.00,meteobridge,2014-02-13 13:23:00,
2014-02-13 08:28:00,22.3,22.1,30.21,NW,315,0.0,0.0,99,0.00,,,0.00,meteobridge,2014-02-13 13:28:00,
2014-02-13 08:33:00,22.1,21.9,30.21,NW,315,0.0,0.0,99,0.00,,,0.00,meteobridge,2014-02-13 13:33:00,
2014-02-13 08:38:00,22.5,22.3,30.20,NW,315,0.0,0.0,99,0.00,,,0.00,meteobridge,2014-02-13 13:38:00,
2014-02-13 08:43:00,22.5,22.3,30.20,NW,315,0.0,0.0,99,0.00,,,0.00,meteobridge,2014-02-13 13:43:00,
2014-02-13 08:48:00,22.5,22.3,30.19,NW,315,0.0,0.0,99,0.00,,,0.00,meteobridge,2014-02-13 13:48:00,
2014-02-13 08:54:00,22.8,22.6,30.19,NW,315,0.0,0.0,99,0.00,,,0.00,meteobridge,2014-02-13 13:54:00,
2014-02-13 08:59:00,22.8,22.6,30.19,NW,315,0.0,0.0,99,0.00,,,0.00,meteobridge,2014-02-13 13:59:00,
2014-02-13 09:04:00,23.0,22.8,30.19,NW,315,0.0,0.0,99,0.00,,,0.00,meteobridge,2014-02-13 14:04:00,
2014-02-13 09:09:00,23.0,22.8,30.18,North,0,0.0,0.0,99,0.00,,,0.00,meteobridge,2014-02-13 14:09:00,
2014-02-13 09:14:00,23.2,23.0,30.17,North,0,0.0,0.0,99,0.00,,,0.00,meteobridge,2014-02-13 14:14:00,
2014-02-13 09:19:00,23.5,23.4,30.17,North,0,0.0,0.0,99,0.00,,,0.00,meteobridge,2014-02-13 14:19:00,
2014-02-13 09:25:00,23.5,23.4,30.16,North,0,0.0,0.0,99,0.00,,,0.00,meteobridge,2014-02-13 14:25:00,
2014-02-13 09:30:00,23.5,23.4,30.16,North,0,0.0,0.0,99,0.00,,,0.00,meteobridge,2014-02-13 14:30:00,
2014-02-13 09:35:00,23.7,23.5,30.15,West,270,0.0,0.0,99,0.00,,,0.00,meteobridge,2014-02-13 14:35:00,
2014-02-13 09:40:00,23.9,23.7,30.15,North,0,0.0,0.0,99,0.00,,,0.00,meteobridge,2014-02-13 14:40:00,
2014-02-13 09:45:00,23.9,23.7,30.14,North,0,0.0,0.0,99,0.00,,,0.00,meteobridge,2014-02-13 14:45:00,
2014-02-13 09:50:00,24.1,23.9,30.14,North,0,0.0,0.0,99,0.00,,,0.00,meteobridge,2014-02-13 14:50:00,
2014-02-13 09:56:00,24.4,24.3,30.14,North,0,0.0,0.0,99,0.00,,,0.00,meteobridge,2014-02-13 14:56:00,
2014-02-13 10:01:00,24.6,24.4,30.13,West,270,0.0,0.0,99,0.00,,,0.00,meteobridge,2014-02-13 15:01:00,
2014-02-13 10:06:00,24.6,24.4,30.13,West,270,0.0,0.0,99,0.00,,,0.00,meteobridge,2014-02-13 15:06:00,
2014-02-13 10:11:00,24.8,24.3,30.13,West,270,0.0,0.0,98,0.00,,,0.00,meteobridge,2014-02-13 15:11:00,
2014-02-13 10:16:00,24.8,24.3,30.13,West,270,0.0,0.0,98,0.00,,,0.00,meteobridge,2014-02-13 15:16:00,
2014-02-13 10:21:00,25.0,24.4,30.12,West,270,0.0,0.0,98,0.00,,,0.00,meteobridge,2014-02-13 15:21:00,
2014-02-13 10:27:00,25.2,24.6,30.11,West,270,0.0,0.0,98,0.00,,,0.00,meteobridge,2014-02-13 15:27:00,
2014-02-13 10:32:00,25.3,24.8,30.10,West,270,0.0,0.0,98,0.00,,,0.00,meteobridge,2014-02-13 15:32:00,
2014-02-13 10:37:00,25.5,25.0,30.09,West,270,0.0,0.0,98,0.00,,,0.00,meteobridge,2014-02-13 15:37:00,
2014-02-13 10:42:00,25.5,25.0,30.09,North,0,0.0,0.0,98,0.00,,,0.00,meteobridge,2014-02-13 15:42:00,
2014-02-13 10:47:00,25.7,25.2,30.09,NW,315,0.0,0.0,98,0.00,,,0.00,meteobridge,2014-02-13 15:47:00,
2014-02-13 10:52:00,25.9,25.3,30.08,North,0,0.0,0.0,98,0.00,,,0.00,meteobridge,2014-02-13 15:52:00,
2014-02-13 10:58:00,26.1,25.5,30.07,North,0,0.0,0.0,98,0.00,,,0.00,meteobridge,2014-02-13 15:58:00,
2014-02-13 11:03:00,26.2,25.7,30.07,North,0,0.0,0.0,98,0.00,,,0.00,meteobridge,2014-02-13 16:03:00,
2014-02-13 11:08:00,26.2,25.7,30.06,North,0,0.0,0.0,98,0.00,,,0.00,meteobridge,2014-02-13 16:08:00,
2014-02-13 11:13:00,26.8,26.1,30.05,North,0,0.0,0.0,97,0.00,,,0.00,meteobridge,2014-02-13 16:13:00,
2014-02-13 11:18:00,26.6,25.9,30.04,North,0,0.0,0.0,97,0.00,,,0.00,meteobridge,2014-02-13 16:18:00,
2014-02-13 11:23:00,26.6,25.9,30.03,North,0,0.0,0.0,97,0.00,,,0.00,meteobridge,2014-02-13 16:23:00,
2014-02-13 11:29:00,27.0,26.2,30.03,North,0,0.0,0.0,97,0.00,,,0.00,meteobridge,2014-02-13 16:29:00,
2014-02-13 11:34:00,27.1,26.4,30.02,North,0,0.0,0.0,97,0.00,,,0.00,meteobridge,2014-02-13 16:34:00,
2014-02-13 11:39:00,27.3,26.6,30.02,North,0,0.0,0.0,97,0.00,,,0.00,meteobridge,2014-02-13 16:39:00,
2014-02-13 11:44:00,27.7,27.0,30.02,West,270,0.0,0.0,97,0.00,,,0.00,meteobridge,2014-02-13 16:44:00,
2014-02-13 11:49:00,28.0,27.3,30.01,West,270,0.0,0.0,97,0.00,,,0.00,meteobridge,2014-02-13 16:49:00,
2014-02-13 11:54:00,28.4,28.2,30.01,West,270,0.0,0.0,99,0.00,,,0.00,meteobridge,2014-02-13 16:54:00,
2014-02-13 12:00:00,28.6,28.4,30.00,West,270,0.0,0.0,99,0.00,,,0.00,meteobridge,2014-02-13 17:00:00,
2014-02-13 12:05:00,28.6,28.4,29.99,NW,315,0.0,0.0,99,0.00,,,0.00,meteobridge,2014-02-13 17:05:00,
2014-02-13 12:10:00,28.6,28.4,29.98,South,180,0.0,0.0,99,0.00,,,0.00,meteobridge,2014-02-13 17:10:00,
2014-02-13 12:15:00,28.6,28.4,29.98,NE,45,0.0,0.0,99,0.00,,,0.00,meteobridge,2014-02-13 17:15:00,
2014-02-13 12:20:00,28.6,28.4,29.97,North,0,0.0,0.0,99,0.00,,,0.00,meteobridge,2014-02-13 17:20:00,
2014-02-13 12:25:00,28.6,28.4,29.95,North,0,0.0,0.0,99,0.00,,,0.00,meteobridge,2014-02-13 17:25:00,
2014-02-13 12:31:00,28.8,28.6,29.95,NW,315,0.0,0.0,99,0.00,,,0.00,meteobridge,2014-02-13 17:31:00,
2014-02-13 12:36:00,28.8,28.6,29.93,NE,45,0.0,0.0,99,0.00,,,0.00,meteobridge,2014-02-13 17:36:00,
2014-02-13 12:41:00,28.9,28.8,29.92,North,0,0.0,0.0,99,0.00,,,0.00,meteobridge,2014-02-13 17:41:00,
2014-02-13 12:46:00,28.9,28.8,29.91,SW,225,0.0,0.0,99,0.00,,,0.00,meteobridge,2014-02-13 17:46:00,
2014-02-13 12:51:00,28.9,28.8,29.91,North,0,0.0,0.0,99,0.00,,,0.00,meteobridge,2014-02-13 17:51:00,
2014-02-13 12:56:00,28.9,28.8,29.90,North,0,0.0,0.0,99,0.00,,,0.00,meteobridge,2014-02-13 17:56:00,
2014-02-13 13:02:00,29.1,28.9,29.89,West,270,0.0,0.0,99,0.00,,,0.00,meteobridge,2014-02-13 18:02:00,
2014-02-13 13:07:00,29.1,28.9,29.88,North,0,0.0,0.0,99,0.00,,,0.00,meteobridge,2014-02-13 18:07:00,
2014-02-13 13:12:00,29.1,28.9,29.87,East,90,0.0,0.0,99,0.00,,,0.00,meteobridge,2014-02-13 18:12:00,
2014-02-13 13:17:00,29.1,28.9,29.86,South,180,0.0,0.0,99,0.00,,,0.00,meteobridge,2014-02-13 18:17:00,
2014-02-13 13:22:00,29.5,29.3,29.85,NW,315,0.0,0.0,99,0.00,,,0.00,meteobridge,2014-02-13 18:22:00,
2014-02-13 13:27:00,29.5,29.3,29.85,North,0,0.0,0.0,99,0.00,,,0.00,meteobridge,2014-02-13 18:27:00,
2014-02-13 13:33:00,29.7,29.5,29.84,West,270,0.0,0.0,99,0.00,,,0.00,meteobridge,2014-02-13 18:33:00,
2014-02-13 13:38:00,29.8,29.7,29.83,North,0,0.0,0.0,99,0.00,,,0.00,meteobridge,2014-02-13 18:38:00,
2014-02-13 13:43:00,30.2,30.0,29.82,East,90,0.0,0.0,99,0.00,,,0.00,meteobridge,2014-02-13 18:43:00,
2014-02-13 13:48:00,30.7,30.6,29.81,NE,45,0.0,0.0,99,0.00,,,0.00,meteobridge,2014-02-13 18:48:00,
2014-02-13 13:53:00,31.8,31.6,29.80,East,90,0.0,0.0,99,0.00,,,0.00,meteobridge,2014-02-13 18:53:00,
2014-02-13 13:58:00,32.2,32.0,29.79,East,90,0.0,0.0,99,0.00,,,0.00,meteobridge,2014-02-13 18:58:00,
2014-02-13 14:04:00,32.4,32.2,29.79,East,90,0.0,0.0,99,0.00,,,0.00,meteobridge,2014-02-13 19:04:00,
2014-02-13 14:09:00,32.5,32.4,29.79,SE,135,0.0,0.0,99,0.00,,,0.00,meteobridge,2014-02-13 19:09:00,
2014-02-13 14:14:00,32.5,32.4,29.78,North,0,0.0,0.0,99,0.00,,,0.00,meteobridge,2014-02-13 19:14:00,
2014-02-13 14:19:00,32.5,32.4,29.78,North,0,0.0,0.0,99,0.00,,,0.00,meteobridge,2014-02-13 19:19:00,
2014-02-13 14:24:00,32.5,32.4,29.77,SW,225,0.0,0.0,99,0.00,,,0.00,meteobridge,2014-02-13 19:24:00,
2014-02-13 14:30:00,32.4,32.2,29.77,SW,225,0.0,0.0,99,0.00,,,0.00,meteobridge,2014-02-13 19:30:00,
2014-02-13 14:35:00,32.4,32.2,29.76,West,270,0.0,0.0,99,0.00,,,0.00,meteobridge,2014-02-13 19:35:00,
2014-02-13 14:40:00,32.5,32.4,29.75,North,0,0.0,0.0,99,0.00,,,0.00,meteobridge,2014-02-13 19:40:00,
2014-02-13 14:45:00,32.5,32.4,29.74,West,270,0.0,0.0,99,0.00,,,0.00,meteobridge,2014-02-13 19:45:00,
2014-02-13 14:50:00,32.5,32.4,29.74,West,270,0.0,0.0,99,0.00,,,0.00,meteobridge,2014-02-13 19:50:00,
2014-02-13 14:55:00,32.5,32.4,29.73,West,270,0.0,0.0,99,0.00,,,0.00,meteobridge,2014-02-13 19:55:00,
2014-02-13 15:01:00,32.5,32.4,29.73,West,270,0.0,0.0,99,0.00,,,0.00,meteobridge,2014-02-13 20:01:00,
2014-02-13 15:06:00,32.5,32.4,29.72,West,270,0.0,0.0,99,0.00,,,0.00,meteobridge,2014-02-13 20:06:00,
2014-02-13 15:11:00,32.5,32.4,29.71,West,270,0.0,0.0,99,0.00,,,0.00,meteobridge,2014-02-13 20:11:00,
2014-02-13 15:16:00,32.5,32.4,29.70,West,270,0.0,0.0,99,0.00,,,0.00,meteobridge,2014-02-13 20:16:00,
2014-02-13 15:21:00,32.5,32.4,29.70,West,270,0.0,0.0,99,0.00,,,0.00,meteobridge,2014-02-13 20:21:00,
2014-02-13 15:26:00,32.5,32.4,29.70,West,270,0.0,0.0,99,0.00,,,0.00,meteobridge,2014-02-13 20:26:00,
2014-02-13 15:32:00,32.5,32.4,29.68,West,270,0.0,0.0,99,0.00,,,0.00,meteobridge,2014-02-13 20:32:00,
2014-02-13 15:37:00,32.5,32.4,29.68,West,270,0.0,0.0,99,0.00,,,0.00,meteobridge,2014-02-13 20:37:00,
2014-02-13 15:42:00,32.4,32.2,29.68,West,270,0.0,0.0,99,0.00,,,0.00,meteobridge,2014-02-13 20:42:00,
2014-02-13 15:47:00,32.4,32.2,29.68,West,270,0.0,0.0,99,0.00,,,0.00,meteobridge,2014-02-13 20:47:00,
2014-02-13 15:52:00,32.4,32.2,29.67,West,270,0.0,0.0,99,0.00,,,0.00,meteobridge,2014-02-13 20:52:00,
2014-02-13 15:57:00,32.4,32.2,29.65,West,270,0.0,0.0,99,0.00,,,0.00,meteobridge,2014-02-13 20:57:00,
2014-02-13 16:03:00,32.4,32.2,29.65,West,270,0.0,0.0,99,0.00,,,0.00,meteobridge,2014-02-13 21:03:00,
2014-02-13 16:08:00,32.4,32.2,29.65,West,270,0.0,0.0,99,0.00,,,0.00,meteobridge,2014-02-13 21:08:00,
2014-02-13 16:13:00,32.4,32.2,29.64,West,270,0.0,0.0,99,0.00,,,0.00,meteobridge,2014-02-13 21:13:00,
2014-02-13 16:18:00,32.4,32.2,29.62,West,270,0.0,0.0,99,0.00,,,0.00,meteobridge,2014-02-13 21:18:00,
2014-02-13 16:23:00,32.4,32.2,29.61,West,270,0.0,0.0,99,0.00,,,0.00,meteobridge,2014-02-13 21:23:00,
2014-02-13 16:28:00,32.2,32.0,29.60,West,270,0.0,0.0,99,0.00,,,0.00,meteobridge,2014-02-13 21:28:00,
2014-02-13 16:34:00,32.2,32.0,29.60,West,270,0.0,0.0,99,0.00,,,0.00,meteobridge,2014-02-13 21:34:00,
2014-02-13 16:39:00,32.2,32.0,29.60,West,270,0.0,0.0,99,0.00,,,0.00,meteobridge,2014-02-13 21:39:00,
2014-02-13 16:44:00,32.2,32.0,29.58,West,270,0.0,0.0,99,0.00,,,0.00,meteobridge,2014-02-13 21:44:00,
2014-02-13 16:49:00,32.2,32.0,29.58,West,270,0.0,0.0,99,0.00,,,0.00,meteobridge,2014-02-13 21:49:00,
2014-02-13 16:54:00,32.2,32.0,29.57,West,270,0.0,0.0,99,0.00,,,0.00,meteobridge,2014-02-13 21:54:00,
2014-02-13 16:59:00,32.2,32.0,29.57,West,270,0.0,0.0,99,0.00,,,0.00,meteobridge,2014-02-13 21:59:00,
2014-02-13 17:05:00,32.2,32.0,29.56,West,270,0.0,0.0,99,0.00,,,0.00,meteobridge,2014-02-13 22:05:00,
2014-02-13 17:10:00,32.2,32.0,29.55,West,270,0.0,0.0,99,0.00,,,0.00,meteobridge,2014-02-13 22:10:00,
2014-02-13 17:15:00,32.2,32.0,29.54,West,270,0.0,0.0,99,0.00,,,0.00,meteobridge,2014-02-13 22:15:00,
2014-02-13 17:20:00,32.0,31.8,29.53,West,270,0.0,0.0,99,0.00,,,0.00,meteobridge,2014-02-13 22:20:00,
2014-02-13 17:25:00,32.0,31.8,29.52,West,270,0.0,0.0,99,0.00,,,0.00,meteobridge,2014-02-13 22:25:00,
2014-02-13 17:30:00,32.2,32.0,29.52,West,270,0.0,0.0,99,0.00,,,0.00,meteobridge,2014-02-13 22:30:00,
2014-02-13 17:36:00,32.4,32.2,29.52,West,270,0.0,0.0,99,0.00,,,0.00,meteobridge,2014-02-13 22:36:00,
2014-02-13 17:41:00,32.4,32.2,29.52,West,270,0.0,0.0,99,0.00,,,0.00,meteobridge,2014-02-13 22:41:00,
2014-02-13 17:46:00,32.4,32.2,29.52,West,270,0.0,0.0,99,0.00,,,0.00,meteobridge,2014-02-13 22:46:00,
2014-02-13 17:51:00,32.5,32.4,29.51,West,270,0.0,0.0,99,0.00,,,0.00,meteobridge,2014-02-13 22:51:00,
2014-02-13 17:56:00,32.7,32.5,29.50,West,270,0.0,0.0,99,0.00,,,0.00,meteobridge,2014-02-13 22:56:00,
2014-02-13 18:01:00,32.7,32.5,29.50,West,270,0.0,0.0,99,0.00,,,0.00,meteobridge,2014-02-13 23:01:00,
2014-02-13 18:06:00,32.7,32.5,29.51,West,270,0.0,0.0,99,0.00,,,0.00,meteobridge,2014-02-13 23:06:00,
2014-02-13 18:12:00,32.9,32.7,29.50,West,270,0.0,0.0,99,0.00,,,0.00,meteobridge,2014-02-13 23:12:00,
2014-02-13 18:17:00,32.9,32.7,29.50,West,270,0.0,0.0,99,0.00,,,0.00,meteobridge,2014-02-13 23:17:00,
2014-02-13 18:22:00,32.9,32.7,29.49,West,270,0.0,0.0,99,0.00,,,0.00,meteobridge,2014-02-13 23:22:00,
2014-02-13 18:27:00,32.9,32.7,29.48,West,270,0.0,0.0,99,0.00,,,0.00,meteobridge,2014-02-13 23:27:00,
2014-02-13 18:32:00,32.9,32.7,29.46,West,270,0.0,0.0,99,0.00,,,0.00,meteobridge,2014-02-13 23:32:00,
2014-02-13 18:37:00,33.1,32.9,29.47,West,270,0.0,0.0,99,0.00,,,0.00,meteobridge,2014-02-13 23:37:00,
2014-02-13 18:43:00,32.9,32.7,29.46,West,270,0.0,0.0,99,0.00,,,0.00,meteobridge,2014-02-13 23:43:00,
2014-02-13 18:48:00,33.1,32.9,29.45,West,270,0.0,0.0,99,0.00,,,0.00,meteobridge,2014-02-13 23:48:00,
2014-02-13 18:53:00,33.1,32.9,29.44,West,270,0.0,0.0,99,0.00,,,0.00,meteobridge,2014-02-13 23:53:00,
2014-02-13 18:58:00,33.3,33.1,29.44,West,270,0.0,0.0,99,0.00,,,0.00,meteobridge,2014-02-13 23:58:00,
2014-02-13 19:03:00,33.3,33.1,29.43,West,270,0.0,0.0,99,0.00,,,0.00,meteobridge,2014-02-14 00:03:00,
2014-02-13 19:08:00,33.3,33.1,29.42,West,270,0.0,0.0,99,0.00,,,0.00,meteobridge,2014-02-14 00:08:00,
2014-02-13 19:14:00,33.3,33.1,29.42,West,270,0.0,0.0,99,0.00,,,0.00,meteobridge,2014-02-14 00:14:00,
2014-02-13 19:19:00,33.3,33.1,29.42,East,90,0.0,0.0,99,0.00,,,0.00,meteobridge,2014-02-14 00:19:00,
2014-02-13 19:24:00,33.3,33.1,29.41,West,270,0.0,0.0,99,0.00,,,0.00,meteobridge,2014-02-14 00:24:00,
2014-02-13 19:29:00,33.1,32.9,29.41,NW,315,0.0,0.0,99,0.00,,,0.00,meteobridge,2014-02-14 00:29:00,
2014-02-13 19:34:00,33.3,33.1,29.42,North,0,0.0,0.0,99,0.00,,,0.00,meteobridge,2014-02-14 00:34:00,
2014-02-13 19:39:00,33.3,33.1,29.41,NW,315,0.0,0.0,99,0.00,,,0.00,meteobridge,2014-02-14 00:39:00,
2014-02-13 19:45:00,33.1,32.9,29.41,North,0,0.0,0.0,99,0.00,,,0.00,meteobridge,2014-02-14 00:45:00,
2014-02-13 19:50:00,33.1,32.9,29.39,South,180,0.0,0.0,99,0.00,,,0.00,meteobridge,2014-02-14 00:50:00,
2014-02-13 19:55:00,33.1,32.9,29.39,North,0,0.0,0.0,99,0.00,,,0.00,meteobridge,2014-02-14 00:55:00,
2014-02-13 20:00:00,33.1,32.9,29.38,North,0,0.0,0.0,99,0.00,,,0.00,meteobridge,2014-02-14 01:00:00,
2014-02-13 20:05:00,33.1,32.9,29.38,North,0,0.0,0.0,99,0.00,,,0.00,meteobridge,2014-02-14 01:05:00,
2014-02-13 20:10:00,33.1,32.9,29.36,NW,315,0.0,0.0,99,0.00,,,0.00,meteobridge,2014-02-14 01:10:00,
2014-02-13 20:16:00,33.1,32.9,29.35,North,0,0.0,0.0,99,0.00,,,0.00,meteobridge,2014-02-14 01:16:00,
2014-02-13 20:21:00,33.1,32.9,29.34,North,0,0.0,0.0,99,0.00,,,0.00,meteobridge,2014-02-14 01:21:00,
2014-02-13 20:26:00,33.1,32.9,29.33,NW,315,0.0,0.0,99,0.00,,,0.00,meteobridge,2014-02-14 01:26:00,
2014-02-13 20:31:00,33.1,32.9,29.34,South,180,0.0,0.0,99,0.00,,,0.00,meteobridge,2014-02-14 01:31:00,
2014-02-13 20:36:00,33.3,33.1,29.33,North,0,0.0,0.0,99,0.00,,,0.00,meteobridge,2014-02-14 01:36:00,
2014-02-13 20:41:00,33.1,32.9,29.33,NW,315,0.0,0.0,99,0.00,,,0.00,meteobridge,2014-02-14 01:41:00,
2014-02-13 20:47:00,33.3,33.1,29.33,North,0,0.0,0.0,99,0.00,,,0.00,meteobridge,2014-02-14 01:47:00,
2014-02-13 20:52:00,33.3,33.1,29.33,North,0,0.0,0.0,99,0.00,,,0.00,meteobridge,2014-02-14 01:52:00,
2014-02-13 20:57:00,33.3,33.1,29.32,NW,315,0.0,0.0,99,0.00,,,0.00,meteobridge,2014-02-14 01:57:00,
2014-02-13 21:02:00,33.3,33.1,29.31,NE,45,0.0,0.0,99,0.00,,,0.00,meteobridge,2014-02-14 02:02:00,
2014-02-13 21:07:00,33.3,33.1,29.31,NE,45,0.0,0.0,99,0.00,,,0.00,meteobridge,2014-02-14 02:07:00,
2014-02-13 21:12:00,33.4,33.3,29.30,SE,135,0.0,0.0,99,0.00,,,0.00,meteobridge,2014-02-14 02:12:00,
2014-02-13 21:18:00,33.4,33.3,29.29,North,0,0.0,0.0,99,0.00,,,0.00,meteobridge,2014-02-14 02:18:00,
2014-02-13 21:23:00,33.4,33.3,29.28,North,0,0.0,0.0,99,0.00,,,0.00,meteobridge,2014-02-14 02:23:00,
2014-02-13 21:28:00,33.4,33.3,29.28,West,270,0.0,0.0,99,0.00,,,0.00,meteobridge,2014-02-14 02:28:00,
2014-02-13 21:33:00,33.6,33.4,29.27,North,0,0.0,0.0,99,0.00,,,0.00,meteobridge,2014-02-14 02:33:00,
2014-02-13 21:38:00,33.6,33.4,29.27,South,180,0.0,0.0,99,0.00,,,0.00,meteobridge,2014-02-14 02:38:00,
2014-02-13 21:43:00,33.4,33.3,29.26,West,270,0.0,0.0,99,0.00,,,0.00,meteobridge,2014-02-14 02:43:00,
2014-02-13 21:49:00,33.6,33.4,29.26,SW,225,0.0,0.0,99,0.00,,,0.00,meteobridge,2014-02-14 02:49:00,
2014-02-13 21:54:00,33.6,33.4,29.26,SE,135,0.0,0.0,99,0.00,,,0.00,meteobridge,2014-02-14 02:54:00,
2014-02-13 21:59:00,33.6,33.4,29.24,NW,315,0.0,0.0,99,0.00,,,0.00,meteobridge,2014-02-14 02:59:00,
2014-02-13 22:04:00,33.6,33.4,29.24,North,0,0.0,0.0,99,0.00,,,0.00,meteobridge,2014-02-14 03:04:00,
2014-02-13 22:09:00,33.6,33.4,29.24,West,270,0.0,0.0,99,0.00,,,0.00,meteobridge,2014-02-14 03:09:00,
2014-02-13 22:14:00,33.6,33.4,29.22,NE,45,0.0,0.0,99,0.00,,,0.00,meteobridge,2014-02-14 03:14:00,
2014-02-13 22:20:00,33.8,33.3,29.22,North,0,0.0,0.0,98,0.00,,,0.00,meteobridge,2014-02-14 03:20:00,
2014-02-13 22:25:00,33.6,33.4,29.21,SW,225,0.0,0.0,99,0.00,,,0.00,meteobridge,2014-02-14 03:25:00,
2014-02-13 22:30:00,33.6,33.4,29.20,SE,135,0.0,0.0,99,0.00,,,0.00,meteobridge,2014-02-14 03:30:00,
2014-02-13 22:35:00,33.6,33.4,29.19,West,270,0.0,0.0,99,0.00,,,0.00,meteobridge,2014-02-14 03:35:00,
2014-02-13 22:40:00,33.6,33.4,29.18,North,0,0.0,0.0,99,0.00,,,0.00,meteobridge,2014-02-14 03:40:00,
2014-02-13 22:46:00,33.6,33.4,29.17,North,0,0.0,0.0,99,0.00,,,0.00,meteobridge,2014-02-14 03:46:00,
2014-02-13 22:51:00,33.8,33.3,29.17,North,0,0.0,0.0,98,0.00,,,0.00,meteobridge,2014-02-14 03:51:00,
2014-02-13 22:56:00,33.6,33.4,29.16,South,180,0.0,0.0,99,0.00,,,0.00,meteobridge,2014-02-14 03:56:00,
2014-02-13 23:01:00,33.6,33.4,29.15,West,270,0.0,0.0,99,0.00,,,0.00,meteobridge,2014-02-14 04:01:00,
2014-02-13 23:06:00,33.6,33.4,29.15,West,270,0.0,0.0,99,0.00,,,0.00,meteobridge,2014-02-14 04:06:00,
2014-02-13 23:11:00,33.6,33.4,29.15,West,270,0.0,0.0,99,0.00,,,0.00,meteobridge,2014-02-14 04:11:00,
2014-02-13 23:17:00,33.4,33.3,29.13,West,270,0.0,0.0,99,0.00,,,0.00,meteobridge,2014-02-14 04:17:00,
2014-02-13 23:22:00,33.6,33.4,29.13,NW,315,0.0,0.0,99,0.00,,,0.00,meteobridge,2014-02-14 04:22:00,
2014-02-13 23:27:00,33.6,33.4,29.12,West,270,0.0,0.0,99,0.00,,,0.00,meteobridge,2014-02-14 04:27:00,
2014-02-13 23:32:00,33.6,33.4,29.12,North,0,0.0,0.0,99,0.00,,,0.00,meteobridge,2014-02-14 04:32:00,
2014-02-13 23:37:00,33.6,33.4,29.11,North,0,0.0,0.0,99,0.00,,,0.00,meteobridge,2014-02-14 04:37:00,
2014-02-13 23:42:00,33.6,33.4,29.09,North,0,0.0,0.0,99,0.00,,,0.00,meteobridge,2014-02-14 04:42:00,
2014-02-13 23:48:00,33.6,33.4,29.09,NW,315,0.0,0.0,99,0.00,,,0.00,meteobridge,2014-02-14 04:48:00,
2014-02-13 23:53:00,33.6,33.4,29.10,North,0,0.0,0.0,99,0.00,,,0.00,meteobridge,2014-02-14 04:53:00,
2014-02-13 23:58:00,33.8,33.3,29.09,NW,315,0.0,0.0,98,0.00,,,0.00,meteobridge,2014-02-14 04:58:00,